Skip Page Navigation
NASA JPL Caltech
NASA Logo - Jet Propulsion Laboratory + View the NASA Portal
+ Center for Near-Earth Object Studies
JPL Home Earth Solar System Stars & Galaxies Technology
JPL Solar System Dynamics
BODIES ORBITS EPHEMERIDES TOOLS PHYSICAL DATA DISCOVERY FAQ SITE MAP
IMPORTANT: The SSD Announcement email list is now available. Major changes are coming in the near future, including possible hostname and/or URL changes. To be notified of such changes, subscribe to this email list.

Please visit this page for more details.


JPL Small-Body Database Browser
Search: [ help ]  
434886 (2006 SS378)
Classification: Main-belt Asteroid          SPK-ID: 2434886
Ephemeris | Orbit Diagram | Orbital Elements | Mission Design | Physical Parameters | Discovery Circumstances ]

[ show orbit diagram ]
Orbital Elements at Epoch 2458600.5 (2019-Apr-27.0) TDB
Reference: JPL 9 (heliocentric ecliptic J2000)
 Element Value Uncertainty (1-sigma)   Units 
e .03342201279380064 7.7258e-08  
a 3.04648234290965 6.3542e-08 au
q 2.944662771068836 2.3145e-07 au
i 11.70508375443976 9.5083e-06 deg
node 120.9855617541975 3.9394e-05 deg
peri 222.9989559042893 0.00014442 deg
M 173.3274431465636 0.00014115 deg
tp 2457665.393114949956
(2016-Oct-03.89311495)
0.00075422 TDB
period 1942.211068868987
5.32
6.0765e-05
1.664e-07
d
yr
n .1853557554945044 5.7991e-09 deg/d
Q 3.148301914750464 6.5666e-08 au
  Orbit Determination Parameters
   # obs. used (total)      79  
   data-arc span      4992 days (13.67 yr)  
   first obs. used      2005-07-09  
   last obs. used      2019-03-10  
   planetary ephem.      DE431  
   SB-pert. ephem.      SB431-N16  
   condition code      0  
   norm. resid. RMS      .59145  
   source      ORB  
   producer      Otto Matic  
   solution date      2019-Jul-14 07:30:38  

Additional Information
 Earth MOID = 1.9423 au 
 Jupiter MOID = 2.09018 au 
 T_jup = 3.206 
[ show covariance matrix ]

Ephemeris | Orbit Diagram | Orbital Elements | Mission Design | Physical Parameters | Discovery Circumstances ]

Physical Parameter Table
Parameter Symbol Value Units Sigma Reference Notes
absolute magnitude H 16.5   n/a MPO434588  

434886 (2006 SS378)          Discovered 2006-Sep-18 by Becker, A. C. at Apache Point
Reference: Last Updated: 2015-06-04

Alternate Designations
 2006 SS378 = 2005 ND73 
Ephemeris | Orbit Diagram | Orbital Elements | Mission Design | Physical Parameters | Discovery Circumstances ]
ABOUT SSD CREDITS/AWARDS PRIVACY/COPYRIGHT GLOSSARY LINKS
FirstGov
(server date/time)  
NASA Home Page
Site Manager:   Ryan S. Park
Webmaster  Alan B. Chamberlin